Tracking 28126 objects as of 1-Oct-2023
HD Live streaming from Space Station
objects crossing your sky now

STARLINK-5681

Track STARLINK-5681 now!
10-day predictions
STARLINK-5681 is classified as:


NORAD ID: 55469
Int'l Code: 2023-015W
Perigee: 565.5 km
Apogee: 566.9 km
Inclination: 43.0 °
Period: 95.8 minutes
Semi major axis: 6937 km
RCS: Unknown
Launch date: February 2, 2023
Source: United States (US)
Launch site: AIR FORCE EASTERN TEST RANGE (AFETR)
Your satellite tracking list
Your tracking list is empty




NASA's NSSDC Master Catalog

Two Line Element Set (TLE):
1 55469U 23015W   23274.27329096 -.00000888  00000-0 -50667-4 0  9990
2 55469  43.0040 124.1443 0001045 281.4306  78.6419 15.02538544 36815
Source of the keplerian elements: AFSPC